Regional Weather Roundup
Issued by NWS

Home | Current Version | Previous Version | Graphics & Text | Print | Product List | Glossary On
Versions: 1 2 3 4 5 6 7 8 9 10 11 12 13 14 15 16 17 18 19 20 21 22 23 24 25 26 27 28 29 30 31 32 33 34 35 36 37 38 39 40 41 42 43 44 45 46 47 48 49 50
000
ASUS43 KOAX 291602
RWRNE

WEATHER ROUNDUP FOR NEBRASKA
NATIONAL WEATHER SERVICE OMAHA NE
1100 AM CDT FRI AUG 29 2014

NOTES: SATELLITE DATA IS BEING USED TO AUGMENT CLOUD COVER ABOVE
       12000 FEET.
       "FAIR" INDICATES FEW OR NO CLOUDS BELOW 12,000 FEET WITH NO
       SIGNIFICANT WEATHER AND/OR OBSTRUCTIONS TO VISIBILITY.

  * THESE STATIONS DO NOT REPORT WEATHER SUCH AS RAIN...SNOW OR FOG.

NEZ001>004-019>022-054>056-291700-
NEBRASKA PANHANDLE

CITY           SKY/WX    TMP DP  RH WIND       PRES   REMARKS
SCOTTSBLUFF    MOSUNNY   69  57  65 NW8       30.02S
ALLIANCE       SUNNY     76  53  44 N12       30.00R
CHADRON        SUNNY     72  56  57 E5        29.99S
KIMBALL        SUNNY     71  47  42 NW12      30.07S
SIDNEY         SUNNY     76  53  44 NW14      30.04R
$$

NEZ057>060-069>072-079>082-291700-
SOUTHWEST NEBRASKA

CITY           SKY/WX    TMP DP  RH WIND       PRES   REMARKS
NORTH PLATTE   SUNNY     72  59  63 W6        29.92S
IMPERIAL       SUNNY     73  57  57 NW8       29.96S
LEXINGTON      SUNNY     72  62  71 W8        29.90S
MCCOOK         SUNNY     73  57  57 CALM      29.92S
OGALLALA       SUNNY     73  55  51 NW8       29.95S
$$

NEZ005>010-023>029-035>040-094-291700-
NORTH CENTRAL NEBRASKA

CITY           SKY/WX    TMP DP  RH WIND       PRES   REMARKS
VALENTINE      SUNNY     75  60  59 W6        29.89R
AINSWORTH      SUNNY     72  61  67 NW5       29.89S
BROKEN BOW     SUNNY     75  61  61 NW9       29.88R
O`NEILL        CLOUDY    71  69  92 N9        29.86R
ORD            MOSUNNY   74  65  73 N7        29.85R
THEDFORD       SUNNY     76  58  52 NW7       29.91S
$$

NEZ041-046>049-061>064-073>077-083>087-291700-
SOUTH CENTRAL NEBRASKA

CITY           SKY/WX    TMP DP  RH WIND       PRES   REMARKS
GRAND ISLAND   PTSUNNY   69  63  81 CALM      29.87R
AURORA         TSTM      67  67 100 W5        29.86R
HASTINGS       CLOUDY    71  62  73 NW6       29.87R
HEBRON         RAIN      68  64  85 SW3       29.87R
HOLDREGE       PTSUNNY   67  62  82 CALM      29.90R
KEARNEY *      PTSUNNY   73  64  73 W3        29.88S
$$

NEZ011>018-030>034-042>045-291700-
NORTHEAST NEBRASKA

CITY           SKY/WX    TMP DP  RH WIND       PRES   REMARKS
NORFOLK        CLOUDY    69  66  90 S6        29.85R
ALBION         CLOUDY    68  65  89 CALM      29.87R
BLAIR          DRIZZLE   73  68  86 SW10      29.84R
FREMONT        LGT RAIN  73  69  87 SW8       29.84R
TEKAMAH        LGT RAIN  73  70  90 SW10      29.83R
WAYNE          LGT RAIN  68  67  97 CALM      29.84R
$$

NEZ050>053-065>068-078-088>093-291700-
SOUTHEAST NEBRASKA

CITY           SKY/WX    TMP DP  RH WIND       PRES   REMARKS
LINCOLN        LGT RAIN  72  67  84 SW7       29.85R
OMAHA EPPLEY   CLOUDY    73  68  84 S10       29.84R
BEATRICE       CLOUDY    70  68  93 S9        29.86R
FALLS CITY     LGT RAIN  72  67  84 SW10      29.85F
NEBRASKA CITY  LGT RAIN  68  68 100 S9        29.86S
PLATTSMOUTH    CLOUDY    71  67  87 S14       29.85R
$$

NEZ044-045-051>053-067-291700-
OMAHA AREA

CITY           SKY/WX    TMP DP  RH WIND       PRES   REMARKS
OMAHA EPPLEY   CLOUDY    73  68  84 S10       29.84R
BLAIR          DRIZZLE   73  68  86 SW10      29.84R
FREMONT        LGT RAIN  73  69  87 SW8       29.84R
MILLARD        CLOUDY    73  68  83 S3        29.84R
OFFUTT AFB     LGT RAIN  72  72 100 S9        29.85R
PLATTSMOUTH    CLOUDY    71  67  87 S14       29.85R
WAHOO          DRIZZLE   72  67  85 SW7       29.84R
$$


USA.gov is the U.S. government's official web portal to all federal, state and local government web resources and services.